Location: Unspecified
(0.0000°N, 0.0000°E)
Time: 08:26:29
(UTC+00:00)

Vanguard 2 - Pass Details

Date: 13 December 2018
Orbit: 553 x 2939 km, 32.9° (Epoch: 18 March)

Event Time Altitude Azimuth Distance (km) Brightness Sun altitude
Rises 01:08:06 0° 330° (NNW) 4,827 - -60.7°
Reaches altitude 10° 01:11:53 10° 344° (NNW) 4,209 - -60.1°
Maximum altitude 01:21:14 25° 34° (NE) 3,888 - -58.6°
Exits shadow 01:26:11 21° 59° (ENE) 4,408 11.3 -57.8°
Drops below altitude 10° 01:33:23 10° 82° (E) 5,608 12.1 -56.6°
Sets 01:39:27 0° 94° (E) 6,768 12.7 -55.5°
